When you browse on this site, cookies collect data to enhance your experience and personalize the content and advertising you see.
Visit our Privacy Policy to learn more. By continuing to use the site, you agree to this use of cookies and data.

Stündliche Wetter 10-y Oktyabr

Heute, 8 August, Samstag

Zeit Temperatur Niederschläge Wind Luftdruck Luftfeuchtigkeit
00:00 +16°C° 0 mm 2 m/S 747 mmHg 81%
01:00 +16°C° 0 mm 2 m/S 747 mmHg 82%
02:00 +16°C° 0 mm 2 m/S 747 mmHg 83%
03:00 +15°C° 0 mm 2 m/S 747 mmHg 84%
04:00 +15°C° 0 mm 2 m/S 747 mmHg 86%
05:00 +15°C° 0 mm 2 m/S 747 mmHg 87%
06:00 +15°C° 0 mm 2 m/S 747 mmHg 88%
07:00 +17°C° 0 mm 2 m/S 747 mmHg 84%
08:00 +18°C° 0 mm 3 m/S 747 mmHg 79%
09:00 +20°C° 0 mm 3 m/S 747 mmHg 74%
10:00 +21°C° 0 mm 3 m/S 747 mmHg 69%
11:00 +22°C° 0 mm 3 m/S 747 mmHg 64%
12:00 +23°C° 0 mm 4 m/S 747 mmHg 60%
13:00 +23°C° 0 mm 4 m/S 746 mmHg 58%
14:00 +25°C° 0 mm 4 m/S 746 mmHg 57%
15:00 +25°C° 0 mm 3 m/S 746 mmHg 56%
16:00 +25°C° 0 mm 3 m/S 745 mmHg 59%
17:00 +24°C° 0 mm 3 m/S 745 mmHg 62%
18:00 +24°C° 0 mm 3 m/S 744 mmHg 65%
19:00 +22°C° 0 mm 3 m/S 744 mmHg 71%
20:00 +20°C° 0 mm 2 m/S 744 mmHg 76%
21:00 +18°C° 0 mm 2 m/S 744 mmHg 81%
22:00 +18°C° 0 mm 2 m/S 744 mmHg 85%
23:00 +17°C° 0 mm 2 m/S 744 mmHg 88%

Morgen, 9 August, Sonntag

Zeit Temperatur Niederschläge Wind Luftdruck Luftfeuchtigkeit
00:00 +16°C° 0 mm 2 m/S 744 mmHg 92%
01:00 +16°C° 0 mm 2 m/S 743 mmHg 92%
02:00 +16°C° 0 mm 2 m/S 743 mmHg 93%
03:00 +16°C° 0 mm 2 m/S 743 mmHg 94%
04:00 +16°C° 0 mm 2 m/S 743 mmHg 94%
05:00 +15°C° 0 mm 2 m/S 743 mmHg 94%
06:00 +15°C° 0 mm 2 m/S 743 mmHg 94%
07:00 +17°C° 0 mm 2 m/S 743 mmHg 87%
08:00 +19°C° 0 mm 3 m/S 743 mmHg 81%
09:00 +21°C° 0 mm 3 m/S 743 mmHg 75%
10:00 +21°C° 0.4 mm 3 m/S 743 mmHg 72%
11:00 +22°C° 0.4 mm 3 m/S 743 mmHg 70%
12:00 +23°C° 0.4 mm 4 m/S 742 mmHg 68%
13:00 +24°C° 0.2 mm 3 m/S 742 mmHg 65%
14:00 +25°C° 0.2 mm 3 m/S 742 mmHg 62%
15:00 +26°C° 0.2 mm 3 m/S 742 mmHg 60%
16:00 +25°C° 0.4 mm 3 m/S 741 mmHg 64%
17:00 +25°C° 0.4 mm 3 m/S 741 mmHg 67%
18:00 +24°C° 0.4 mm 3 m/S 741 mmHg 71%
19:00 +23°C° 0.2 mm 2 m/S 741 mmHg 76%
20:00 +20°C° 0.2 mm 2 m/S 741 mmHg 81%
21:00 +19°C° 0.2 mm 2 m/S 741 mmHg 86%
22:00 +18°C° 0 mm 2 m/S 741 mmHg 87%
23:00 +18°C° 0 mm 2 m/S 741 mmHg 89%

übermorgen, 10 August, Montag

Zeit Temperatur Niederschläge Wind Luftdruck Luftfeuchtigkeit
00:00 +17°C° 0 mm 2 m/S 742 mmHg 90%
01:00 +17°C° 0 mm 2 m/S 742 mmHg 90%
02:00 +16°C° 0 mm 2 m/S 741 mmHg 91%
03:00 +16°C° 0 mm 2 m/S 741 mmHg 91%
04:00 +16°C° 0 mm 2 m/S 741 mmHg 91%
05:00 +15°C° 0 mm 2 m/S 741 mmHg 91%
06:00 +15°C° 0 mm 2 m/S 741 mmHg 91%
07:00 +17°C° 0 mm 2 m/S 741 mmHg 86%
08:00 +18°C° 0 mm 2 m/S 742 mmHg 80%
09:00 +20°C° 0 mm 2 m/S 742 mmHg 74%
10:00 +21°C° 0 mm 2 m/S 742 mmHg 68%
11:00 +23°C° 0 mm 2 m/S 742 mmHg 63%
12:00 +24°C° 0 mm 2 m/S 742 mmHg 57%
13:00 +24°C° 0 mm 2 m/S 742 mmHg 55%
14:00 +24°C° 0 mm 2 m/S 742 mmHg 53%
15:00 +24°C° 0 mm 2 m/S 741 mmHg 51%
16:00 +24°C° 0 mm 1 m/S 741 mmHg 55%
17:00 +24°C° 0 mm 1 m/S 741 mmHg 58%
18:00 +24°C° 0 mm 1 m/S 741 mmHg 61%
19:00 +22°C° 0 mm 1 m/S 741 mmHg 65%
20:00 +20°C° 0 mm 1 m/S 741 mmHg 69%
21:00 +19°C° 0 mm 1 m/S 741 mmHg 74%
22:00 +18°C° 0 mm 1 m/S 741 mmHg 75%
23:00 +17°C° 0 mm 2 m/S 741 mmHg 76%

11 August, Dienstag

Zeit Temperatur Niederschläge Wind Luftdruck Luftfeuchtigkeit
00:00 +16°C° 0 mm 2 m/S 740 mmHg 78%
01:00 +16°C° 0 mm 2 m/S 740 mmHg 79%
02:00 +16°C° 0 mm 2 m/S 740 mmHg 81%
03:00 +16°C° 0 mm 2 m/S 740 mmHg 83%
04:00 +16°C° 0.1 mm 2 m/S 740 mmHg 84%
05:00 +16°C° 0.1 mm 3 m/S 740 mmHg 86%
06:00 +16°C° 0.1 mm 3 m/S 740 mmHg 87%
07:00 +17°C° 0.5 mm 3 m/S 740 mmHg 87%
08:00 +18°C° 0.5 mm 3 m/S 740 mmHg 87%
09:00 +19°C° 0.5 mm 3 m/S 740 mmHg 87%
10:00 +19°C° 0.1 mm 3 m/S 739 mmHg 83%
11:00 +20°C° 0.1 mm 3 m/S 739 mmHg 79%
12:00 +21°C° 0.1 mm 4 m/S 739 mmHg 75%
13:00 +21°C° 0 mm 4 m/S 739 mmHg 70%
14:00 +22°C° 0 mm 4 m/S 739 mmHg 66%
15:00 +22°C° 0 mm 4 m/S 739 mmHg 61%
16:00 +21°C° 0 mm 4 m/S 739 mmHg 63%
17:00 +20°C° 0 mm 5 m/S 739 mmHg 66%
18:00 +19°C° 0 mm 5 m/S 740 mmHg 68%
19:00 +18°C° 0 mm 4 m/S 740 mmHg 72%
20:00 +16°C° 0 mm 3 m/S 740 mmHg 77%
21:00 +13°C° 0 mm 3 m/S 740 mmHg 81%
22:00 +12°C° 0 mm 3 m/S 740 mmHg 84%
23:00 +12°C° 0 mm 3 m/S 740 mmHg 87%

12 August, Mittwoch

Zeit Temperatur Niederschläge Wind Luftdruck Luftfeuchtigkeit
00:00 +11°C° 0 mm 3 m/S 740 mmHg 89%
01:00 +11°C° 0 mm 3 m/S 740 mmHg 91%
02:00 +11°C° 0 mm 3 m/S 740 mmHg 93%
03:00 +10°C° 0 mm 3 m/S 740 mmHg 94%
04:00 +10°C° 0 mm 3 m/S 740 mmHg 95%
05:00 +10°C° 0 mm 3 m/S 740 mmHg 95%
06:00 +10°C° 0 mm 3 m/S 740 mmHg 95%
07:00 +11°C° 0 mm 4 m/S 740 mmHg 89%
08:00 +12°C° 0 mm 4 m/S 740 mmHg 83%
09:00 +14°C° 0 mm 4 m/S 741 mmHg 76%
10:00 +14°C° 0.1 mm 5 m/S 741 mmHg 75%
11:00 +15°C° 0.1 mm 5 m/S 741 mmHg 73%
12:00 +15°C° 0.1 mm 5 m/S 741 mmHg 72%
13:00 +16°C° 0.1 mm 5 m/S 741 mmHg 71%
14:00 +16°C° 0.1 mm 5 m/S 741 mmHg 70%
15:00 +16°C° 0.1 mm 6 m/S 741 mmHg 69%
16:00 +16°C° 0.1 mm 5 m/S 741 mmHg 69%
17:00 +16°C° 0.1 mm 5 m/S 742 mmHg 69%
18:00 +16°C° 0.1 mm 5 m/S 742 mmHg 69%
19:00 +14°C° 0 mm 4 m/S 742 mmHg 74%
20:00 +13°C° 0 mm 3 m/S 742 mmHg 79%
21:00 +12°C° 0 mm 3 m/S 742 mmHg 83%
22:00 +11°C° 0 mm 3 m/S 742 mmHg 85%
23:00 +10°C° 0 mm 3 m/S 742 mmHg 86%

13 August, Donnerstag

Zeit Temperatur Niederschläge Wind Luftdruck Luftfeuchtigkeit
00:00 +10°C° 0 mm 3 m/S 743 mmHg 88%
01:00 +9°C° 0 mm 3 m/S 743 mmHg 89%
02:00 +9°C° 0 mm 3 m/S 743 mmHg 90%
03:00 +8°C° 0 mm 3 m/S 743 mmHg 90%
04:00 +8°C° 0 mm 3 m/S 743 mmHg 90%
05:00 +8°C° 0 mm 3 m/S 743 mmHg 89%
06:00 +8°C° 0 mm 3 m/S 743 mmHg 88%
07:00 +10°C° 0 mm 3 m/S 743 mmHg 82%
08:00 +11°C° 0 mm 3 m/S 743 mmHg 75%
09:00 +13°C° 0 mm 4 m/S 743 mmHg 69%
10:00 +14°C° 0 mm 4 m/S 743 mmHg 64%
11:00 +15°C° 0 mm 4 m/S 743 mmHg 60%
12:00 +17°C° 0 mm 4 m/S 743 mmHg 55%
13:00 +17°C° 0.1 mm 4 m/S 743 mmHg 56%
14:00 +17°C° 0.1 mm 4 m/S 743 mmHg 57%
15:00 +17°C° 0.1 mm 4 m/S 742 mmHg 57%
16:00 +17°C° 0 mm 3 m/S 742 mmHg 60%
17:00 +17°C° 0 mm 3 m/S 742 mmHg 62%
18:00 +17°C° 0 mm 3 m/S 742 mmHg 64%
19:00 +15°C° 0 mm 2 m/S 742 mmHg 67%
20:00 +14°C° 0 mm 2 m/S 742 mmHg 70%
21:00 +13°C° 0 mm 2 m/S 743 mmHg 73%
22:00 +12°C° 0 mm 2 m/S 743 mmHg 76%
23:00 +12°C° 0 mm 2 m/S 743 mmHg 79%
Mehr zeigen